| time (UTC) | temp F | wind direction | speed MPH | gust MPH | rain 1hr in | rain 24hr in | rain mn in | humidity % | barometer mb |
| 20260509071530 | 55 | 283 | 0.0 | 0.0 | 0.00 | 0.00 | 0.00 | 73 | 1026.1 |
| 20260509070035 | 57 | 283 | 0.0 | 0.0 | 0.00 | 0.00 | 0.00 | 68 | 1025.9 |
| 20260509064529 | 59 | 283 | 0.0 | 0.0 | 0.00 | 0.00 | 0.00 | 65 | 1025.8 |
| 20260509063028 | 60 | 268 | 0.0 | 0.0 | 0.00 | 0.00 | 0.00 | 63 | 1025.6 |
| 20260509061529 | 60 | 281 | 0.0 | 0.0 | 0.00 | 0.00 | 0.00 | 61 | 1025.6 |
| 20260509060029 | 61 | 218 | 0.0 | 0.0 | 0.00 | 0.00 | 0.00 | 60 | 1025.5 |
| 20260509054527 | 62 | 254 | 0.0 | 2.0 | 0.00 | 0.00 | 0.00 | 59 | 1025.5 |
| 20260509053038 | 62 | 278 | 0.0 | 0.0 | 0.00 | 0.00 | 0.00 | 58 | 1025.5 |
| 20260509051528 | 62 | 267 | 0.0 | 0.0 | 0.00 | 0.00 | 0.00 | 57 | 1025.5 |
| 20260509050041 | 61 | 267 | 0.0 | 0.0 | 0.00 | 0.00 | 0.00 | 58 | 1025.4 |
| 20260509044521 | 62 | 318 | 0.0 | 0.0 | 0.00 | 0.00 | 0.00 | 59 | 1025.4 |
| 20260509043032 | 61 | 268 | 0.0 | 2.0 | 0.00 | 0.00 | 0.00 | 61 | 1025.5 |
| 20260509041517 | 61 | 308 | 0.0 | 1.0 | 0.00 | 0.00 | 0.00 | 63 | 1025.7 |
| 20260509040014 | 59 | 280 | 2.0 | 5.0 | 0.00 | 0.00 | 0.00 | 62 | 1025.6 |
| 20260509034515 | 59 | 159 | 1.0 | 6.0 | 0.00 | 0.00 | 0.00 | 64 | 1025.6 |
| 20260509033012 | 59 | 228 | 0.0 | 6.0 | 0.00 | 0.00 | 0.00 | 66 | 1025.8 |
| 20260509031507 | 59 | 316 | 0.0 | 5.0 | 0.00 | 0.00 | 0.00 | 67 | 1025.9 |
| 20260509030014 | 58 | 265 | 0.0 | 5.0 | 0.00 | 0.01 | 0.00 | 67 | 1026.1 |
| 20260509024501 | 57 | 229 | 0.0 | 5.0 | 0.00 | 0.01 | 0.00 | 68 | 1026.3 |
| 20260509023058 | 57 | 327 | 2.0 | 6.0 | 0.00 | 0.01 | 0.00 | 68 | 1026.6 |
| 20260509021555 | 56 | 258 | 0.0 | 4.0 | 0.00 | 0.01 | 0.00 | 70 | 1026.9 |
| 20260509020055 | 56 | 263 | 0.0 | 3.0 | 0.00 | 0.01 | 0.00 | 70 | 1027.2 |
| 20260509014550 | 55 | 359 | 1.0 | 4.0 | 0.00 | 0.01 | 0.00 | 71 | 1027.3 |
| 20260509013050 | 54 | 31 | 0.0 | 0.0 | 0.00 | 0.01 | 0.00 | 74 | 1027.5 |
| 20260509011545 | 53 | 100 | 0.0 | 4.0 | 0.00 | 0.01 | 0.00 | 76 | 1027.6 |
| 20260509010040 | 52 | 116 | 1.0 | 3.0 | 0.00 | 0.01 | 0.00 | 77 | 1027.7 |
| 20260509004551 | 51 | 5 | 0.0 | 0.0 | 0.00 | 0.01 | 0.00 | 80 | 1027.7 |
| 20260509003034 | 49 | 112 | 0.0 | 1.0 | 0.00 | 0.01 | 0.00 | 84 | 1028.0 |
| 20260509001530 | 49 | 112 | 0.0 | 2.0 | 0.00 | 0.01 | 0.00 | 88 | 1028.1 |
| 20260509000039 | 48 | 94 | 1.0 | 3.0 | 0.00 | 0.01 | 0.00 | 91 | 1028.2 |
| 20260508234528 | 47 | 270 | 0.0 | 0.0 | 0.00 | 0.01 | 0.00 | 92 | 1028.2 |
| 20260508074527 | 48 | 232 | 2.0 | 10.0 | 0.00 | 0.01 | 0.01 | 82 | 1022.6 |
| 20260508073024 | 49 | 217 | 2.0 | 11.0 | 0.00 | 0.01 | 0.01 | 81 | 1022.4 |